#timestamp,LO_Frequency,Hit,StdDev 
1574924415.2,286046999.1,N
1574924435.0,286046998.5,N
1574924435.9,286046998.5,N
1574924455.8,286047000.8,N
1574924475.6,286046998.7,N
1574924495.4,286046997.2,N
1574924515.3,286046997.1,N
1574924535.1,286046997.3,N
1574924555.9,286046995.6,N
1574924575.7,286046995.9,N
1574924595.5,286046995.2,N
1574924615.4,286046997.9,N
1574924635.2,286046996.6,N
1574924655.0,286046996.6,N
1574924655.9,286046996.6,N
1574924675.8,286046996.8,N
1574924695.6,286046997.7,N
1574924715.5,286046995.4,N
1574924735.3,286046997.5,N
1574924755.1,286046995.1,N
1574924775.9,286046993.4,N
1574924795.7,286046996.4,N
1574924815.5,286046995.7,N
1574924835.4,286046996.4,N
1574924855.2,286046993.3,Y
1574924875.1,286046997.0,P
1574924876.0,286046997.0,P
1574924895.8,286046998.4,P
1574924915.6,286046999.4,N
1574924935.5,286046997.1,Y
1574924955.3,286046998.6,P
1574924975.2,286046999.1,N
1574924995.9,286046997.4,P
1574925015.7,286046996.1,Y
1574925035.6,286046997.4,P
1574925055.4,286046997.0,P
1574925075.3,286046997.4,P
1574925095.1,286046996.7,Y
1574925096.0,286046996.7,P
1574925115.8,286047001.2,N
1574925135.7,286047000.3,N
1574925155.5,286047001.7,N
1574925175.3,286047001.6,N
1574925195.2,286047002.6,N
1574925215.0,286047002.1,N
1574925215.9,286047002.1,N
1574925235.8,286047002.5,N
1574925255.6,286047003.5,N
1574925275.4,286047002.9,N
1574925295.3,286047004.8,N
1574925315.1,286047003.6,N
1574925335.8,286047003.2,N
1574925355.7,286047002.4,N
1574925375.5,286047000.4,N
1574925395.4,286047002.6,N
1574925415.2,286047002.2,N
1574925435.0,286047002.6,N
1574925435.9,286047002.6,N
1574925455.8,286046999.8,N
1574925475.6,286047001.9,N
1574925495.4,286047002.4,N
1574925515.3,286047000.9,N
1574925535.1,286046998.7,N
1574925555.9,286046999.8,N
1574925575.7,286047000.6,N
1574925595.5,286047001.2,N
1574925615.4,286047001.1,N
1574925635.2,286047000.7,N
1574925655.1,286047000.2,N
1574925656.0,286047000.2,N
1574925675.8,286047002.7,N
1574925695.6,286047000.1,N
1574925715.5,286047000.7,N
1574925735.3,286047001.2,N
1574925755.1,286046998.5,N
1574925775.9,286046999.2,N
1574925795.7,286046996.9,N
1574925815.6,286046996.8,N
1574925835.4,286046997.7,N
1574925855.2,286046997.8,N
1574925875.1,286046995.1,N
1574925876.0,286046995.1,N
1574925895.8,286046995.5,N
1574925915.6,286046995.3,N
1574925935.5,286046995.2,N
1574925955.3,286046994.9,N
1574925975.2,286046995.9,N
1574925995.9,286046993.6,N
1574926015.7,286046991.7,Y
1574926035.6,286046995.8,P
1574926055.4,286046995.6,P
1574926075.3,286046994.9,P
1574926095.1,286046994.9,Y
1574926096.0,286046994.9,P
1574926115.8,286047001.1,N
1574926135.7,286047001.1,N
1574926155.5,286047000.0,N
1574926175.3,286046998.1,N
1574926195.2,286047000.1,N
1574926215.0,286047001.2,N
1574926215.9,286047001.2,N
1574926235.8,286046999.0,N
1574926255.6,286046999.3,N
1574926275.4,286047001.0,N
1574926295.3,286046998.3,N
1574926315.1,286046998.1,N
1574926335.9,286047000.8,N
1574926355.7,286046998.9,N
1574926375.5,286046998.9,N
1574926395.4,286046998.3,N
1574926415.2,286047000.4,N
1574926435.0,286047000.8,N
1574926435.9,286047000.8,N
1574926455.8,286046998.2,N
1574926475.6,286046998.5,N
1574926495.5,286047000.4,N
1574926515.3,286047000.6,N
1574926535.1,286047000.9,N
1574926555.9,286047000.9,N
1574926575.7,286046998.5,N
1574926595.6,286047000.5,N
1574926615.4,286047001.1,N
1574926635.2,286046996.6,N
1574926655.1,286046998.7,N
1574926656.0,286046998.7,N
1574926675.8,286046999.4,N
1574926695.6,286046998.5,N
1574926715.5,286046999.2,N
1574926735.3,286047001.2,N
1574926755.2,286047000.0,N
1574926775.9,286047001.5,N
1574926795.7,286047003.5,N
1574926815.6,286047005.6,Y
1574926835.4,286047005.7,P
1574926855.3,286047003.1,N
1574926875.1,286047003.2,N
1574926876.0,286047003.2,N
1574926895.8,286047004.7,N
1574926915.7,286047005.8,Y
1574926935.5,286047002.3,P
1574926955.4,286046999.8,N
1574926975.2,286047000.0,N
1574926995.0,286047000.4,N
1574926995.9,286047000.4,N
1574927015.8,286046999.3,N
1574927035.6,286046999.0,N
1574927055.4,286046996.6,N
1574927075.3,286046997.7,N
1574927095.1,286046997.8,N
1574927115.8,286046995.7,N
1574927135.7,286046996.3,N
1574927155.5,286046993.7,N
1574927175.4,286046996.2,N
1574927195.2,286046995.7,N
1574927215.0,286046995.6,N
1574927215.9,286046995.6,N
1574927235.8,286046995.1,N
1574927255.6,286046995.7,N
1574927275.4,286046993.4,N
1574927295.3,286046993.4,N
1574927315.1,286046993.6,N
1574927335.9,286046995.1,N
1574927355.7,286046994.9,N
1574927375.5,286046995.1,N
1574927395.4,286046997.5,N
1574927415.2,286046997.7,N
1574927435.0,286046996.8,N
1574927435.9,286046996.8,N
1574927455.8,286046997.2,N
1574927475.6,286046995.6,N
1574927495.5,286046995.0,N
1574927515.3,286046993.8,Y
1574927535.1,286046997.0,P
1574927555.9,286046997.4,P
1574927575.7,286046998.0,P
1574927595.5,286046997.6,Y
1574927615.4,286046998.3,P
1574927635.2,286046998.5,N
1574927655.1,286046998.6,N
1574927656.0,286046998.6,N
1574927675.8,286047000.1,N
1574927695.6,286047000.9,N
1574927715.5,286047001.1,N
1574927735.3,286047001.0,N
1574927755.1,286046998.5,N
1574927775.9,286046999.0,N
1574927795.7,286046998.8,N
1574927815.6,286046998.9,N
1574927835.4,286046998.3,N
1574927855.2,286046999.4,N
1574927875.1,286046998.9,N
1574927876.0,286046998.9,N
1574927895.8,286046996.6,Y
1574927915.6,286046998.5,P
1574927935.5,286046999.1,P
1574927955.3,286046995.6,P
1574927975.2,286046994.2,Y
1574927995.9,286046995.1,P
